Regional Weather Roundup
Issued by NWS Grand Forks, ND

Home | Current Version | Previous Version | Graphics & Text | Print | Product List | Glossary On
Versions: 1 2 3 4 5 6 7 8 9 10 11 12 13 14 15 16 17 18 19 20 21 22 23 24 25 26 27 28 29 30 31 32 33 34 35 36 37 38 39 40 41 42 43 44 45 46 47 48 49 50
875
ASUS43 KFGF 240731
RWRFGF
PRAIRIE TO PINES  WEATHER ROUNDUP
NATIONAL WEATHER SERVICE EASTERN NORTH DAKOTA/GRAND FORKS ND
200 AM CDT FRI MAR 24 2017

 **SATELLITE DATA USED TO AUGMENT SKY COVER AT AUTOMATED STATIONS**
 *****  WEATHER ACROSS EASTERN NORTH DAKOTA  *****

CITY           SKY/WX    TMP DP  RH WIND       PRES   REMARKS
GRAND FORKS    FAIR      33  32  96 N8        29.92R
GRAND FRKS AFB FAIR      33  32  99 N10       29.93R WCI  24
DEVILS LAKE    FAIR      31  29  92 N10       29.92R WCI  22
FARGO          CLOUDY    34  34 100 CALM      29.92R FOG
WAHPETON ARPT    N/A     34  32  93 NE3       29.89F
$$

 ***** WEATHER ACROSS CENTRAL AND WESTERN NORTH DAKOTA  *****

CITY           SKY/WX    TMP DP  RH WIND       PRES   REMARKS
BISMARCK       FAIR      33  31  92 E5        29.97R
MINOT          FAIR      32  28  85 N13       29.91F WCI  22
JAMESTOWN      FAIR      33  32  96 N9        29.93R
MINOT AFB      FAIR      33  27  79 N13       29.91F WCI  23
GARRISON         N/A     31  28  89 N6        29.90S
WILLISTON      FAIR      32  30  92 N8        29.95S WCI  25
DICKINSON      FAIR      31  31 100 S6        29.92R FOG
HETTINGER      MOCLDY    36  34  92 S6        29.96R
$$

 *****  OTHER AIRPORT OBSERVATIONS IN OUR AREA  *****

CITY           SKY/WX    TMP DP  RH WIND       PRES   REMARKS
WALHALLA       NOT AVBL
GRAFTON AIRPOR FAIR      34  34 100 N8        29.98R
VALLEY CITY AR CLOUDY    34  34 100 N6        29.94R
CANDO          NOT AVBL
CAVALIER APRT  NOT AVBL
GWINNER        FOG       34  34 100 MISG      29.90R VSB 1/4
SHEYENNE NWR     N/A     34  34 100 NE2       29.95S
ROLLA          FAIR      28  27  93 N15       29.94R WCI  17
 ***** THE ABOVE OBSERVATIONS ARE NON NWS ARE NOT QUALITY
       CONTROLLED AND MAY MIS-REPORT RAIN FOR SNOW...
$$

  *****  WEATHER ACROSS NORTHERN MINNESOTA  *****

CITY           SKY/WX    TMP DP  RH WIND       PRES   REMARKS
FLAG ISLAND    CLOUDY    34  30  86 NW10      29.90F
WARROAD        CLOUDY    34  30  86 N6        29.92S
ROSEAU         MOCLDY    34  28  80 N6        29.93R
HALLOCK        FAIR      34  30  86 NE8       29.94R
THF RVR FALLS  CLOUDY    33  32  96 N7        29.92R FOG
BAUDETTE       CLOUDY    33  32  96 CALM      29.89R FOG
WASKISH        CLOUDY    34  32  93 CALM      29.90R FOG
CROOKSTON      FAIR      32  32 100 CALM      29.92R FOG
STEPHEN NDAWN    N/A     32  30  93 N7          N/A
GREENBUSH NDAW   N/A     32  30  93 N6          N/A
$$
  *****  WEATHER ACROSS CENTRAL AND WEST MINNESOTA  *****

CITY           SKY/WX    TMP DP  RH WIND       PRES   REMARKS
FOSSTON        CLOUDY    30  30 100 CALM      29.91R FOG
BEMIDJI        CLOUDY    32  32 100 CALM      29.89R FOG
PARK RAPIDS    CLOUDY    34  31  88 CALM      29.88S
ELBOW LAKE     CLOUDY    33  33 100 CALM      29.88R FOG
WADENA         CLOUDY    32  32 100 NE6       29.87S FOG
DETROIT LAKES  MOCLDY    34  32  93 NE3       29.88F FOG
MOORHEAD       CLOUDY    34  32  93 CALM      29.92R FOG
FERGUS FALLS   CLOUDY    34  34 100 NE5       29.93R
MORRIS MN        N/A     34  34 100 N5        29.88R FOG
STAPLES        DRIZZLE   32  32 100 N5        29.88S
$$
  *****  WEATHER ELSEWHERE ACROSS MINNESOTA  *****

CITY           SKY/WX    TMP DP  RH WIND       PRES   REMARKS
DULUTH         DRIZZLE   33  32  96 CALM      29.89S FOG
INTRNTL FALLS  CLOUDY    34  32  92 W3        29.89S FOG
ELY            CLOUDY    32  32 100 CALM      29.88F FOG
CLOQUET        CLOUDY    32  30  93 CALM      29.89F FOG
WHEATON        CLOUDY    34  34 100 NE5       29.91R FOG
BRAINERD       LGT RAIN  33  32  96 NE6       29.89R FOG
HIBBING        CLOUDY    31  31 100 CALM      29.89S FOG
ALEXANDRIA     CLOUDY    34  33  96 NE7       29.85F FOG
SAINT CLOUD    CLOUDY    35  35 100 N6        29.86R FOG
MINNEAPOLIS    CLOUDY    39  36  89 E6        29.85F FOG
$$

  *****  WEATHER ACROSS SOUTH DAKOTA  *****

CITY           SKY/WX    TMP DP  RH WIND       PRES   REMARKS
SIOUX FALLS    LGT RAIN  43  41  93 N6        29.78R
BROOKINGS      CLOUDY    36  36 100 N9        29.81R FOG
WATERTOWN      CLOUDY    34  33  96 NE7       29.85R FOG
HURON          CLOUDY    38  38 100 N12       29.84R
SISSETON         N/A     34  34 100 NE8       29.87R
ABERDEEN       CLOUDY    36  33  89 N8        29.89R
MITCHELL       CLOUDY    42  41  96 N12       29.84R
PIERRE         MOCLDY    40  36  86 NW8       29.87R
MOBRIDGE       FAIR      41  35  79 N7        29.89R
RAPID CITY     CLOUDY    41  37  86 N13       29.96R
$$

  *****  SOME WEATHER IN NEARBY STATES *****

CITY           SKY/WX    TMP DP  RH WIND       PRES   REMARKS
GLASGOW MT     FAIR      35  27  72 SE6       29.95R
GREAT FALLS MT FAIR      32  18  56 E3        30.01R
CHEYENNE WY    CLOUDY    35  30  82 N35G47    29.81F WCI  21
SCOTTSBLUFF NE CLOUDY    42  37  82 N18G25    29.90R
OMAHA NE       CLOUDY    70  51  51 S14       29.69R
DES MOINES IA  MOCLDY    56  43  61 SE7       29.76S
DAVENPORT IA   FAIR      51  42  71 S15       29.88S
CHICAGO IL     FAIR      44  34  67 S12       29.96F
EAU CLAIRE WI  LGT RAIN  38  37  97 E3        29.87F FOG
LA CROSSE WI   TSTM      42  37  82 E5        29.82F
$$

  *****  SOME NATIONAL WEATHER *****

CITY           SKY/WX    TMP DP  RH WIND       PRES   REMARKS
LA GUARDIA NY  FAIR      40  18  41 SW7       30.52S
RALEIGH NC     FAIR      40  27  59 S6        30.54R
ATLANTA GA     MOCLDY    59  42  53 SE10      30.40S
NEW ORLEANS LA FAIR      69  66  90 SE10      30.18F
OKLAHOMA CITY  FAIR      69  40  34 S23G36    29.79F
ALBUQUERQUE NM FAIR      42  29  59 SW16G24   29.89S
SALT LAKE CITY FAIR      36  36 100 S5        30.11R
LOS ANGELES CA FAIR      57  52  83 CALM      30.23R
BOISE ID       FAIR      46  25  43 SE12      30.05R
SEATTLE WA     LGT RAIN  45  44  97 NW3       29.87F
$$

*** WEATHER ACROSS MANITOBA...SASKATCHEWAN AND ONTARIO ***
                ***ONTARIO***

CITY           SKY/WX    TMP DP  RH WIND       PRES   REMARKS
GERALDTON      CLOUDY    30  28  93 SW9       29.83F WCI  22
THUNDER BAY    CLOUDY    32  32 100 CALM      29.90R FOG
SIOUX LOOKOUT  CLOUDY    34  30  86 SW3       29.85R
TORONTO        CLOUDY    34  21  60 SE6       30.17F
BIG TROUT LK   FLURRIES  19  18  93 N13G24    29.94R WCI   7
PICKLE LAKE    NOT AVBL
DRYDEN         CLOUDY    34  32  93 SW6       29.87R
KENORA         CLOUDY    34  30  86 NW7       29.89R
$$
                *** MANITOBA***

CITY           SKY/WX    TMP DP  RH WIND       PRES   REMARKS
BRANDON        CLEAR     28  21  74 NE12      30.01S WCI  18
DAUPHIN        CLOUDY    27  21  80 N3        30.09R
ISLAND LAKE    CLEAR      9   3  78 N9G18     30.12  WCI  -5
PILOT MOUND      N/A     28  25  86 N13         N/A  WCI  18
THE PAS        FLURRIES  25  19  80 NE3       30.13R
THOMPSON       CLEAR     -4 -11  71 NE9       30.27R WCI -20
WINNIPEG       CLEAR     28  25  86 N16       29.97F WCI  17
LYNN LAKE      CLEAR     -4  -9  77 E6        30.24R WCI -16
CHURCHILL      CLEAR    -15 -22  70 NW10      30.32R WCI -35
GILLAM         CLEAR    -13 -18  77 N5        30.27R WCI -25
$$
                ***SASKATCHEWAN***

CITY           SKY/WX    TMP DP  RH WIND       PRES   REMARKS
ESTEVAN        PTCLDY    30  28  93 E9        29.98R WCI  22
KINDERSLEY     CLOUDY    27  27 100 NE7       30.00R WCI  19
LLOYDMINSTER   FOG       23  23 100 S5        30.01R VSB 1/4 WCI  17
PRINCE ALBERT  CLOUDY    28  19  69 SE5       30.08S WCI  23
REGINA         CLEAR     28  25  86 NE9       30.02R WCI  20
YORKTON        CLEAR     21  19  93 N8        30.05R WCI  12
N. BATTLEFORD  MOCLDY    27  27 100 E6        30.08R WCI  20
LA RONGE       CLOUDY    25  19  80 E8        30.11R WCI  16
SASKATOON      CLEAR     23  19  86 E6        30.07R WCI  16
SWIFT CURRENT  CLEAR     28  27  93 E9        29.96R WCI  20
$$
NOTE: THESE ARE AUTOMATED STATIONS WITH LIMITED QUALITY CONTROL
      "FAIR" INDICATES FEW OR NO CLOUDS BELOW 12,000 FEET WITH NO
      SIGNIFICANT WEATHER AND/OR OBSTRUCTIONS TO VISIBILITY.
      SKY/WX - SKY CONDITION AND SIGNIFICANT WEATHER.
      TMP - AIR TEMPERATURE.    DP   - DEWPOINT TEMPERATURE.
      RH  - RELATIVE HUMIDITY.  PRES - PRESSURE.
      HX  - HEAT INDEX.         WCI  - WIND CHILL INDEX.
$




USA.gov is the U.S. government's official web portal to all federal, state and local government web resources and services.